Weather History for KHFJ - September, 2012

Change the Weather History Date:

Sunday, September 2, 2012

  Actual Average (KJLN) Record (KJLN)
Temperature  
Mean Temperature 76 °F 76 °F  
Max Temperature 89 °F 88 °F 105 °F (2000)
Min Temperature 64 °F 65 °F 48 °F (1974)
Degree Days  
Heating Degree Days 0 0  
Month to date heating degree days 0  
Since 1 July heating degree days 1  
Cooling Degree Days 12 11  
Month to date cooling degree days 23  
Year to date cooling degree days 1450  
Growing Degree Days 26 (Base 50)    
Moisture  
Dew Point 67 °F    
Average Humidity 77    
Maximum Humidity 100    
Minimum Humidity 46    
Precipitation  
Precipitation 0.00 in 0.16 in 1.50 in (1993)
Month to date precipitation 0.32  
Year to date precipitation 31.29  
Sea Level Pressure  
Sea Level Pressure 29.95 in    
Wind  
Wind Speed 4 mph (NW)    
Max Wind Speed 10 mph    
Max Gust Speed -    
Visibility 8 miles    
Events Fog    
T = Trace of Precipitation, MM = Missing Value Source: NWS Daily Summary

Daily Weather History Graph

Daily Weather History Graph

Search for Another Location

Airport or City:

Trip Planner

Search our weather history database for the weather conditions in past years. The results will help you decide how hot, cold, wet, or windy it might be!

Date:

Astronomy

Sep. 02, 2012 Rise Set
Actual Time 6:48 AM CDT 7:42 PM CDT
Civil Twilight 6:21 AM CDT 8:08 PM CDT
Nautical Twilight 5:50 AM CDT 8:39 PM CDT
Astronomical Twilight 5:17 AM CDT 9:12 PM CDT
Moon 8:35 PM CDT 8:52 AM CDT
Length of Visible Light 13h 46m
Length of Day
12h 54m
Waning Gibbous, 95% of the Moon is Illuminated
Sep 2
Waning Gibbous
Sep 8
Last Quarter
Sep 15
New
Sep 22
First Quarter
Sep 29
Full

Hourly Weather History & Observations

Time (CDT) Temp. Heat Index Dew Point Humidity Pressure Visibility Wind Dir Wind Speed Gust Speed Precip Events Conditions
12:15 AM 68.0 °F - 68.0 °F 100% 29.96 in 10.0 mi West 3.5 mph - N/A   Clear
12:35 AM 68.0 °F - 68.0 °F 100% 29.96 in 7.0 mi WSW 3.5 mph - N/A   Clear
12:55 AM 68.0 °F - 68.0 °F 100% 29.96 in 7.0 mi West 4.6 mph - N/A   Clear
1:15 AM 68.0 °F - 68.0 °F 100% 29.96 in 7.0 mi West 3.5 mph - N/A   Clear
1:35 AM 68.0 °F - 68.0 °F 100% 29.96 in 7.0 mi West 3.5 mph - N/A   Clear
1:55 AM 68.0 °F - 68.0 °F 100% 29.96 in 5.0 mi West 3.5 mph - N/A   Clear
2:15 AM 68.0 °F - 68.0 °F 100% 29.96 in 7.0 mi Calm Calm - N/A   Clear
2:35 AM 68.0 °F - 68.0 °F 100% 29.95 in 7.0 mi West 3.5 mph - N/A   Clear
2:55 AM 68.0 °F - 68.0 °F 100% 29.95 in 7.0 mi NW 3.5 mph - N/A   Clear
3:15 AM 68.0 °F - 68.0 °F 100% 29.95 in 7.0 mi NNW 4.6 mph - N/A   Clear
3:35 AM 68.0 °F - 66.2 °F 94% 29.95 in 7.0 mi Calm Calm - N/A   Clear
3:55 AM 66.2 °F - 66.2 °F 100% 29.94 in 3.0 mi NW 3.5 mph - N/A   Clear
4:15 AM 66.2 °F - 66.2 °F 100% 29.94 in 7.0 mi Calm Calm - N/A   Clear
4:35 AM 64.4 °F - 64.4 °F 100% 29.94 in 3.0 mi Calm Calm - N/A   Clear
4:55 AM 64.4 °F - 64.4 °F 100% 29.94 in 0.2 mi WSW 3.5 mph - N/A Fog Fog
5:15 AM 64.4 °F - 64.4 °F 100% 29.95 in 0.2 mi SW 4.6 mph - N/A Fog Fog
5:35 AM 64.4 °F - 64.4 °F 100% 29.95 in 0.8 mi WSW 4.6 mph - N/A   Overcast
5:55 AM 64.4 °F - 64.4 °F 100% 29.95 in 4.0 mi West 4.6 mph - N/A   Scattered Clouds
6:15 AM 64.4 °F - 64.4 °F 100% 29.96 in 5.0 mi WSW 3.5 mph - N/A   Clear
6:35 AM 64.4 °F - 64.4 °F 100% 29.96 in 0.5 mi SW 4.6 mph - N/A Fog Fog
6:55 AM 64.4 °F - 64.4 °F 100% 29.97 in 0.5 mi SW 4.6 mph - N/A Fog Fog
7:15 AM 64.4 °F - 64.4 °F 100% 29.97 in 0.2 mi SW 3.5 mph - N/A Fog Fog
7:35 AM 64.4 °F - 64.4 °F 100% 29.98 in 0.5 mi SW 3.5 mph - N/A Fog Fog
7:55 AM 64.4 °F - 64.4 °F 100% 29.98 in 2.0 mi Calm Calm - N/A   Overcast
8:15 AM 66.2 °F - 66.2 °F 100% 29.98 in 4.0 mi West 3.5 mph - N/A   Scattered Clouds
8:35 AM 68.0 °F - 68.0 °F 100% 29.98 in 7.0 mi WNW 3.5 mph - N/A   Scattered Clouds
8:55 AM 69.8 °F - 68.0 °F 94% 29.97 in 10.0 mi WNW 4.6 mph - N/A   Scattered Clouds
9:15 AM 69.8 °F - 68.0 °F 94% 29.97 in 10.0 mi WNW 6.9 mph - N/A   Scattered Clouds
9:35 AM 71.6 °F - 68.0 °F 88% 29.97 in 10.0 mi NW 4.6 mph - N/A   Scattered Clouds
9:55 AM 73.4 °F - 69.8 °F 88% 29.98 in 10.0 mi NW 8.1 mph - N/A   Scattered Clouds
10:15 AM 75.2 °F - 69.8 °F 83% 29.98 in 10.0 mi NW 5.8 mph - N/A   Clear
10:35 AM 77.0 °F - 69.8 °F 78% 29.99 in 10.0 mi NNW 8.1 mph - N/A   Clear
10:55 AM 77.0 °F - 69.8 °F 78% 29.99 in 10.0 mi NNW 6.9 mph - N/A   Clear
11:15 AM 78.8 °F - 69.8 °F 74% 29.99 in 10.0 mi NNW 8.1 mph - N/A   Clear
11:35 AM 78.8 °F - 68.0 °F 69% 29.99 in 10.0 mi NNW 8.1 mph - N/A   Clear
11:55 AM 80.6 °F 83.2 °F 68.0 °F 65% 29.98 in 10.0 mi North 6.9 mph - N/A   Clear
12:15 PM 80.6 °F 83.2 °F 68.0 °F 65% 29.97 in 10.0 mi North 6.9 mph - N/A   Clear
12:35 PM 82.4 °F 86.3 °F 69.8 °F 66% 29.97 in 10.0 mi NNW 5.8 mph - N/A   Clear
12:55 PM 82.4 °F 85.4 °F 68.0 °F 62% 29.96 in 10.0 mi NW 6.9 mph - N/A   Clear
1:15 PM 82.4 °F 84.6 °F 66.2 °F 58% 29.96 in 10.0 mi NNW 10.4 mph - N/A   Clear
1:35 PM 86.0 °F 87.3 °F 64.4 °F 48% 29.95 in 10.0 mi NNW 8.1 mph - N/A   Clear
1:55 PM 86.0 °F 88.2 °F 66.2 °F 51% 29.95 in 10.0 mi WNW 4.6 mph - N/A   Clear
2:15 PM 86.0 °F 88.2 °F 66.2 °F 51% 29.94 in 10.0 mi NW 8.1 mph - N/A   Clear
2:35 PM 87.8 °F 89.4 °F 64.4 °F 46% 29.94 in 10.0 mi NW 8.1 mph - N/A   Clear
2:55 PM 87.8 °F 90.4 °F 66.2 °F 49% 29.93 in 10.0 mi WNW 6.9 mph - N/A   Clear
3:15 PM 87.8 °F 89.4 °F 64.4 °F 46% 29.92 in 10.0 mi WNW 5.8 mph - N/A   Clear
3:35 PM 87.8 °F 89.4 °F 64.4 °F 46% 29.91 in 10.0 mi West 6.9 mph - N/A   Clear
3:55 PM 87.8 °F 89.4 °F 64.4 °F 46% 29.91 in 10.0 mi NW 8.1 mph - N/A   Clear
4:15 PM 89.6 °F 92.2 °F 66.2 °F 46% 29.91 in 10.0 mi West 4.6 mph - N/A   Clear
4:35 PM 87.8 °F 90.4 °F 66.2 °F 49% 29.91 in 10.0 mi NW 6.9 mph - N/A   Clear
4:55 PM 89.6 °F 92.2 °F 66.2 °F 46% 29.91 in 10.0 mi West 4.6 mph - N/A   Clear
5:15 PM 87.8 °F 89.4 °F 64.4 °F 46% 29.91 in 10.0 mi NW 6.9 mph - N/A   Clear
5:35 PM 89.6 °F 92.2 °F 66.2 °F 46% 29.91 in 10.0 mi WNW 8.1 mph - N/A   Clear
5:55 PM 89.6 °F 92.2 °F 66.2 °F 46% 29.91 in 10.0 mi West 6.9 mph - N/A   Clear
6:15 PM 87.8 °F 91.4 °F 68.0 °F 52% 29.91 in 10.0 mi WNW 5.8 mph - N/A   Clear
6:35 PM 87.8 °F 91.4 °F 68.0 °F 52% 29.91 in 10.0 mi NW 5.8 mph - N/A   Clear
6:55 PM 86.0 °F 89.4 °F 68.0 °F 55% 29.91 in 10.0 mi North 3.5 mph - N/A   Clear
7:15 PM 84.2 °F 87.3 °F 68.0 °F 58% 29.91 in 10.0 mi North 4.6 mph - N/A   Clear
7:35 PM 82.4 °F 85.4 °F 68.0 °F 62% 29.91 in 10.0 mi North 3.5 mph - N/A   Clear
7:55 PM 80.6 °F 83.2 °F 68.0 °F 65% 29.91 in 10.0 mi North 3.5 mph - N/A   Clear
8:15 PM 80.6 °F 83.2 °F 68.0 °F 65% 29.91 in 10.0 mi NNE 3.5 mph - N/A   Clear
8:35 PM 78.8 °F - 66.2 °F 65% 29.92 in 10.0 mi NNE 3.5 mph - N/A   Clear
8:55 PM 78.8 °F - 66.2 °F 65% 29.92 in 10.0 mi NNE 4.6 mph - N/A   Clear
9:15 PM 78.8 °F - 66.2 °F 65% 29.92 in 10.0 mi NE 4.6 mph - N/A   Clear
9:35 PM 77.0 °F - 66.2 °F 69% 29.93 in 10.0 mi NE 3.5 mph - N/A   Clear
9:55 PM 75.2 °F - 66.2 °F 73% 29.93 in 10.0 mi NE 4.6 mph - N/A   Clear
10:15 PM 73.4 °F - 66.2 °F 78% 29.93 in 10.0 mi NE 3.5 mph - N/A   Clear
11:15 PM 73.4 °F - 66.2 °F 78% 29.92 in 10.0 mi ENE 6.9 mph - N/A   Clear
11:35 PM 73.4 °F - 66.2 °F 78% 29.93 in 10.0 mi East 4.6 mph - N/A   Clear
11:55 PM 71.6 °F - 66.2 °F 83% 29.93 in 10.0 mi East 4.6 mph - N/A   Clear